"TOA5","MOW","CPU:UNC_MeetingWaters","DataHourly"
"TIMESTAMP","SondeTempC","SpCond","DOSat","DOmg","pH","Turb","BattVolt_Min"
"TS","","","","","","",""
"","Smp","Smp","Smp","Smp","Smp","Smp","Min"
"2002-12-01 00:00:00",9.01000022888,0.351999998093,12.0,1.38999998569,7.30000019073,67.9000015259,12.4300003052
"2002-12-01 01:00:00",8.75,0.351999998093,12.3999996185,1.44000005722,7.30999994278,116.900001526,12.3900003433
"2002-12-01 02:00:00",8.43999958038,0.351000010967,13.1000003815,1.52999997139,7.32000017166,154.199996948,12.3599996567
"2002-12-01 03:00:00",8.11999988556,0.34999999404,13.0,1.52999997139,7.34000015259,156.5,12.3299999237
"2002-12-01 04:00:00",7.80999994278,0.349000006914,12.5,1.48000001907,7.32000017166,163.600006104,12.3100004196
"2002-12-01 05:00:00",7.55000019073,0.349000006914,12.3999996185,1.48000001907,7.34000015259,138.800003052,12.279999733
"2002-12-01 06:00:00",7.30999994278,0.347999989986,12.3000001907,1.48000001907,7.36000013351,156.399993896,12.25
"2002-12-01 07:00:00",7.09999990463,0.347000002861,12.3999996185,1.50999999046,7.36999988556,127.099998474,12.220000267
"2002-12-01 08:00:00",6.86999988556,0.345999985933,12.5,1.51999998093,7.40000009537,151.899993896,12.2100000381
"2002-12-01 09:00:00",6.69999980927,0.347000002861,11.8999996185,1.46000003815,7.38999986649,163.800003052,12.4300003052
"2002-12-01 10:00:00",6.69000005722,0.345999985933,11.8999996185,1.45000004768,7.40000009537,160.100006104,12.970000267
"2002-12-01 11:00:00",6.78000020981,0.344999998808,12.1999998093,1.48000001907,7.40000009537,149.199996948,12.7399997711
"2002-12-01 12:00:00",7.17000007629,0.342999994755,12.6999998093,1.52999997139,7.40999984741,165.100006104,13.3000001907
"2002-12-01 13:00:00",7.5,0.342000007629,13.1000003815,1.57000005245,7.42000007629,157.0,12.8900003433
"2002-12-01 14:00:00",7.73000001907,0.340999990702,13.1000003815,1.55999994278,7.40000009537,26.5,12.6700000763
"2002-12-01 15:00:00",7.80000019073,0.340999990702,13.1999998093,1.57000005245,7.40000009537,70.4000015259,12.6499996185
"2002-12-01 16:00:00",7.78000020981,0.340999990702,13.1999998093,1.57000005245,7.38999986649,64.5999984741,13.6899995804
"2002-12-01 17:00:00",7.67000007629,0.340999990702,13.0,1.54999995232,7.40999984741,42.5999984741,12.5600004196
"2002-12-01 18:00:00",7.44999980927,0.340000003576,12.5,1.5,7.38999986649,37.4000015259,12.5100002289
"2002-12-01 19:00:00",7.17999982834,0.340999990702,12.3000001907,1.49000000954,7.38000011444,25.8999996185,12.4799995422
"2002-12-01 20:00:00",6.94000005722,0.340999990702,12.1000003815,1.47000002861,7.38999986649,26.7999992371,12.4399995804
"2002-12-01 21:00:00",6.69999980927,0.340999990702,11.6000003815,1.41999995708,7.38000011444,26.2999992371,12.4200000763
"2002-12-01 22:00:00",6.44999980927,0.340999990702,11.3999996185,1.39999997616,7.38999986649,28.2000007629,12.3900003433
"2002-12-01 23:00:00",6.25,0.340999990702,11.0,1.37000000477,7.38000011444,26.2000007629,12.3599996567
"2002-12-02 00:00:00",6.05999994278,0.340999990702,11.1000003815,1.37000000477,7.38999986649,27.7999992371,12.3400001526
"2002-12-02 01:00:00",5.86000013351,0.340999990702,10.8999996185,1.37000000477,7.38999986649,28.5,12.3199996948
"2002-12-02 02:00:00",5.71999979019,0.340999990702,10.6000003815,1.32000005245,7.36999988556,26.5,12.2899999619
"2002-12-02 03:00:00",5.53000020981,0.340999990702,10.5,1.32000005245,7.40000009537,28.8999996185,12.25
"2002-12-02 04:00:00",5.36000013351,0.338999986649,11.3999996185,1.44000005722,7.42999982834,30.8999996185,12.2100000381
"2002-12-02 05:00:00",5.21999979019,0.338999986649,11.1999998093,1.41999995708,7.42999982834,28.2000007629,12.1800003052
"2002-12-02 06:00:00",5.05000019073,0.338999986649,11.1000003815,1.40999996662,7.42999982834,31.2999992371,12.1499996185
"2002-12-02 07:00:00",4.86999988556,0.340000003576,11.0,1.39999997616,7.42000007629,31.0,12.1499996185
"2002-12-02 08:00:00",4.67999982834,0.340000003576,10.8999996185,1.39999997616,7.42999982834,28.2999992371,12.1499996185
"2002-12-02 09:00:00",4.61000013351,0.340000003576,10.8000001907,1.39999997616,7.44000005722,25.8999996185,12.5699996948
"2002-12-02 10:00:00",4.82000017166,0.340999990702,11.1000003815,1.41999995708,7.46000003815,27.2000007629,13.1099996567
"2002-12-02 11:00:00",5.36999988556,0.342000007629,12.0,1.51999998093,7.46000003815,32.5,13.2899999619
"2002-12-02 12:00:00",6.0,0.344000011683,12.8000001907,1.59000003338,7.51000022888,28.5,13.6800003052
"2002-12-02 13:00:00",6.57000017166,0.344000011683,12.8000001907,1.57000005245,7.48000001907,28.6000003815,13.25
"2002-12-02 14:00:00",7.13999986649,0.344999998808,13.3999996185,1.62000000477,7.46999979019,39.5,12.9399995804
"2002-12-02 15:00:00",7.38999986649,0.345999985933,13.3000001907,1.59000003338,7.46000003815,26.7000007629,12.8400001526
"2002-12-02 16:00:00",7.57999992371,0.345999985933,13.6000003815,1.62999999523,7.46999979019,26.8999996185,12.6800003052
"2002-12-02 17:00:00",7.67000007629,0.344999998808,13.1000003815,1.55999994278,7.48999977112,26.5,12.6000003815
"2002-12-02 18:00:00",7.73000001907,0.344000011683,12.8999996185,1.53999996185,7.46000003815,26.1000003815,12.5600004196
"2002-12-02 19:00:00",7.78000020981,0.340999990702,12.8000001907,1.51999998093,7.46000003815,27.1000003815,12.5399999619
"2002-12-02 20:00:00",7.82000017166,0.337000012398,12.5,1.49000000954,7.42999982834,26.8999996185,12.5200004578
"2002-12-02 21:00:00",7.84999990463,0.337000012398,12.1999998093,1.45000004768,7.40999984741,29.1000003815,12.5
"2002-12-02 22:00:00",7.90999984741,0.33599999547,11.6000003815,1.37000000477,7.38999986649,35.5999984741,12.4799995422
"2002-12-02 23:00:00",7.92000007629,0.335000008345,11.3000001907,1.34000003338,7.36000013351,48.5,12.279999733
"2002-12-03 00:00:00",7.86000013351,0.335000008345,11.1000003815,1.32000005245,7.34000015259,60.0999984741,12.4499998093
"2002-12-03 01:00:00",7.75,0.333999991417,10.8000001907,1.27999997139,7.32000017166,59.4000015259,12.4200000763
"2002-12-03 02:00:00",7.63000011444,0.335000008345,10.5,1.25,7.30999994278,62.2000007629,12.3999996185
"2002-12-03 03:00:00",7.44999980927,0.33599999547,10.6000003815,1.27999997139,7.30999994278,59.5,12.3699998856
"2002-12-03 04:00:00",7.26000022888,0.337999999523,10.6999998093,1.28999996185,7.32999992371,55.7000007629,12.3500003815
"2002-12-03 05:00:00",7.07999992371,0.338999986649,10.6999998093,1.29999995232,7.32999992371,46.5,12.3199996948
"2002-12-03 06:00:00",6.90000009537,0.340999990702,10.6999998093,1.29999995232,7.34000015259,43.7000007629,12.2899999619
"2002-12-03 07:00:00",6.73000001907,0.342999994755,10.6000003815,1.29999995232,7.36000013351,40.7999992371,12.2700004578
"2002-12-03 08:00:00",6.59999990463,0.342999994755,10.3999996185,1.27999997139,7.34999990463,40.0,12.2399997711
"2002-12-03 09:00:00",6.48999977112,0.344000011683,10.3000001907,1.26999998093,7.36000013351,47.7000007629,12.3299999237
"2002-12-03 10:00:00",6.65999984741,0.344999998808,10.3999996185,1.27999997139,7.36999988556,50.7999992371,12.9399995804
"2002-12-03 11:00:00",7.13000011444,0.345999985933,11.0,1.33000004292,7.40000009537,42.5,12.75
"2002-12-03 12:00:00",7.71000003815,0.347000002861,11.6999998093,1.39999997616,7.40999984741,40.0,13.1300001144
"2002-12-03 13:00:00",8.31000041962,0.347000002861,12.1999998093,1.42999994755,7.42000007629,39.0999984741,13.1199998856
"2002-12-03 14:00:00",8.67000007629,0.347000002861,12.3999996185,1.44000005722,7.40999984741,39.7000007629,12.720000267
"2002-12-03 15:00:00",8.73999977112,0.347000002861,12.1000003815,1.40999996662,7.38000011444,36.2000007629,12.6700000763
"2002-12-03 16:00:00",8.68999958038,0.347000002861,11.6000003815,1.35000002384,7.34999990463,36.7000007629,12.8999996185
"2002-12-03 17:00:00",8.51000022888,0.347000002861,11.3000001907,1.32000005245,7.34000015259,39.4000015259,12.5699996948
"2002-12-03 18:00:00",8.18999958038,0.344999998808,11.3999996185,1.34000003338,7.38000011444,32.9000015259,12.5200004578
"2002-12-03 19:00:00",7.88999986649,0.342999994755,11.1999998093,1.33000004292,7.36999988556,32.5999984741,12.4899997711
"2002-12-03 20:00:00",7.59000015259,0.340000003576,11.0,1.30999994278,7.38999986649,31.5,12.4600000381
"2002-12-03 21:00:00",7.28000020981,0.337999999523,10.6000003815,1.27999997139,7.38000011444,34.7000007629,12.4399995804
"2002-12-03 22:00:00",6.98000001907,0.337000012398,10.5,1.27999997139,7.38999986649,32.7000007629,12.4200000763
"2002-12-03 23:00:00",6.71000003815,0.33599999547,10.1999998093,1.24000000954,7.38000011444,33.2000007629,12.3900003433
"2002-12-04 00:00:00",6.44999980927,0.33599999547,9.89999961853,1.22000002861,7.36999988556,40.0999984741,12.3800001144
"2002-12-04 01:00:00",6.21999979019,0.33599999547,9.5,1.17999994755,7.38000011444,36.0,12.3599996567
"2002-12-04 02:00:00",6.03999996185,0.33599999547,9.19999980927,1.13999998569,7.36999988556,46.9000015259,12.3400001526
"2002-12-04 03:00:00",5.84999990463,0.33599999547,9.0,1.12000000477,7.36999988556,44.0999984741,12.3199996948
"2002-12-04 04:00:00",5.71000003815,0.33599999547,8.69999980927,1.10000002384,7.36000013351,40.9000015259,12.3000001907
"2002-12-04 05:00:00",5.57999992371,0.33599999547,8.60000038147,1.08000004292,7.36000013351,42.5,12.279999733
"2002-12-04 06:00:00",5.44999980927,0.33599999547,8.5,1.07000005245,7.36999988556,47.5999984741,12.25
"2002-12-04 07:00:00",5.30000019073,0.33599999547,8.39999961853,1.05999994278,7.36000013351,42.9000015259,12.220000267
"2002-12-04 08:00:00",5.15000009537,0.33599999547,8.30000019073,1.04999995232,7.36999988556,47.9000015259,12.220000267
"2002-12-04 09:00:00",5.09999990463,0.33599999547,8.30000019073,1.04999995232,7.36000013351,89.4000015259,12.4600000381
"2002-12-04 10:00:00",5.11999988556,0.337000012398,8.19999980927,1.03999996185,7.38000011444,42.7999992371,12.9799995422
"2002-12-04 11:00:00",5.21999979019,0.337000012398,8.30000019073,1.04999995232,7.36999988556,37.9000015259,12.8299999237
"2002-12-04 12:00:00",5.38000011444,0.337000012398,8.39999961853,1.05999994278,7.36999988556,37.9000015259,12.6899995804
"2002-12-04 13:00:00",5.46999979019,0.337000012398,8.60000038147,1.09000003338,7.38000011444,40.2999992371,12.6599998474
"2002-12-04 14:00:00",5.48999977112,0.337999999523,8.80000019073,1.10000002384,7.38000011444,35.9000015259,12.5500001907
"2002-12-04 15:00:00",5.26999998093,0.337000012398,8.89999961853,1.12999999523,7.40000009537,59.5999984741,12.4899997711
"2002-12-04 16:00:00",4.65999984741,0.337000012398,8.69999980927,1.12000000477,7.36999988556,41.5999984741,12.4499998093
"2002-12-04 17:00:00",3.93000006676,0.337999999523,8.10000038147,1.05999994278,7.40000009537,36.7999992371,12.3999996185
"2002-12-04 18:00:00",3.38000011444,0.337999999523,7.59999990463,1.00999999046,7.40999984741,35.5999984741,12.3800001144
"2002-12-04 19:00:00",2.83999991417,0.338999986649,7.09999990463,0.959999978542,7.40999984741,35.0,12.3199996948
"2002-12-04 20:00:00",2.31999993324,0.345999985933,6.69999980927,0.920000016689,7.46000003815,36.7000007629,12.2600002289
"2002-12-04 21:00:00",2.58999991417,0.351999998093,6.90000009537,0.930000007153,7.44999980927,39.7000007629,12.220000267
"2002-12-04 22:00:00",3.20000004768,0.363000005484,7.30000019073,0.97000002861,7.44000005722,56.9000015259,12.1999998093
"2002-12-04 23:00:00",4.53999996185,2.01099991798,10.5,1.35000002384,7.30000019073,290.5,12.1999998093
"2002-12-05 00:00:00",5.36000013351,1.34800004959,13.5,1.70000004768,7.15999984741,153.899993896,12.1999998093
"2002-12-05 01:00:00",4.15999984741,1.04799997807,11.5,1.5,7.05999994278,124.099998474,12.2100000381
"2002-12-05 02:00:00",3.82999992371,0.65600001812,10.6000003815,1.39999997616,6.92000007629,88.5999984741,12.1999998093
"2002-12-05 03:00:00",3.66000008583,0.347999989986,9.69999980927,1.27999997139,6.92999982834,95.5999984741,12.1999998093
"2002-12-05 04:00:00",3.98000001907,0.254999995232,9.39999961853,1.24000000954,6.92999982834,54.0999984741,12.1999998093
"2002-12-05 05:00:00",4.67000007629,0.232999995351,9.69999980927,1.24000000954,7.0,50.7999992371,12.1899995804
"2002-12-05 06:00:00",3.51999998093,0.172000005841,9.19999980927,1.22000002861,6.86999988556,181.199996948,12.1999998093
"2002-12-05 07:00:00",2.17000007629,0.0740000009537,7.09999990463,0.980000019073,6.48000001907,240.699996948,12.1899995804
"2002-12-05 08:00:00",2.47000002861,0.0659999996424,7.19999980927,0.990000009537,6.78999996185,112.0,12.1899995804
"2002-12-05 09:00:00",3.71000003815,0.0949999988079,8.60000038147,1.12999999523,6.94999980927,75.5999984741,12.1899995804
"2002-12-05 10:00:00",4.78999996185,0.119999997318,9.60000038147,1.23000001907,7.07000017166,63.0,12.1999998093
"2002-12-05 11:00:00",5.75,0.143999993801,10.5,1.30999994278,7.17999982834,62.4000015259,12.1999998093
"2002-12-05 12:00:00",6.23000001907,0.167999997735,11.0,1.36000001431,7.19000005722,55.0999984741,12.2600002289
"2002-12-05 13:00:00",6.5,0.231000006199,11.3999996185,1.39999997616,7.15999984741,49.5999984741,12.4200000763
"2002-12-05 14:00:00",6.76999998093,0.261000007391,11.6000003815,1.41999995708,7.17000007629,43.4000015259,12.4799995422
"2002-12-05 15:00:00",7.03000020981,0.246000006795,11.6999998093,1.41999995708,7.17000007629,41.7000007629,12.3599996567
"2002-12-05 16:00:00",7.15000009537,0.22499999404,11.6000003815,1.39999997616,7.15000009537,45.4000015259,12.2299995422
"2002-12-05 17:00:00",7.28000020981,0.266999989748,11.8000001907,1.41999995708,7.09000015259,43.7000007629,12.1800003052
"2002-12-05 18:00:00",7.34999990463,0.286000013351,11.8000001907,1.41999995708,7.09999990463,42.5999984741,12.1800003052
"2002-12-05 19:00:00",7.40000009537,0.29699999094,11.8000001907,1.41999995708,7.09999990463,37.7000007629,12.1800003052
"2002-12-05 20:00:00",7.46000003815,0.270999997854,11.6999998093,1.39999997616,7.11000013351,34.2000007629,12.1599998474
"2002-12-05 21:00:00",7.53999996185,0.256000012159,11.6000003815,1.38999998569,7.11999988556,32.7000007629,12.1700000763
"2002-12-05 22:00:00",7.63999986649,0.25799998641,11.6000003815,1.37999999523,7.11999988556,28.7999992371,12.1700000763
"2002-12-05 23:00:00",7.76000022888,0.254999995232,11.6000003815,1.38999998569,7.15000009537,28.0,12.1599998474
"2002-12-06 00:00:00",7.75,0.252000004053,11.6000003815,1.37999999523,7.15000009537,26.5,12.1599998474
"2002-12-06 01:00:00",7.78000020981,0.25,11.5,1.37000000477,7.15000009537,24.5,12.1499996185
"2002-12-06 02:00:00",7.76999998093,0.247999995947,11.5,1.37000000477,7.15999984741,23.3999996185,12.1400003433
"2002-12-06 03:00:00",7.78999996185,0.24699999392,11.5,1.36000001431,7.15999984741,21.2000007629,12.1400003433
"2002-12-06 04:00:00",7.80999994278,0.24699999392,11.3999996185,1.35000002384,7.13999986649,20.2999992371,12.1300001144
"2002-12-06 05:00:00",7.82000017166,0.24699999392,11.3000001907,1.35000002384,7.13999986649,18.6000003815,12.1300001144
"2002-12-06 06:00:00",7.80000019073,0.246000006795,11.3000001907,1.34000003338,7.13999986649,18.0,12.1300001144
"2002-12-06 07:00:00",7.71000003815,0.24699999392,11.1999998093,1.34000003338,7.15000009537,16.7000007629,12.1199998856
"2002-12-06 08:00:00",7.59000015259,0.24699999392,11.1000003815,1.33000004292,7.15000009537,16.1000003815,12.1199998856
"2002-12-06 09:00:00",7.53000020981,0.24699999392,11.1000003815,1.33000004292,7.15999984741,15.6000003815,12.2899999619
"2002-12-06 10:00:00",7.57999992371,0.246000006795,11.1999998093,1.34000003338,7.17999982834,15.6000003815,12.8000001907
"2002-12-06 11:00:00",7.65000009537,0.254999995232,11.1999998093,1.34000003338,7.19000005722,15.8000001907,12.6499996185
"2002-12-06 12:00:00",8.43999958038,1.24699997902,14.3999996185,1.67999994755,7.17000007629,17.6000003815,13.0399999619
"2002-12-06 13:00:00",9.48999977112,0.532000005245,13.8999996185,1.58000004292,7.23999977112,54.2999992371,13.0600004196
"2002-12-06 14:00:00",8.84000015259,0.340000003576,12.6000003815,1.46000003815,7.05000019073,63.2999992371,12.9600000381
"2002-12-06 15:00:00",8.47999954224,0.296000003815,12.0,1.39999997616,6.96999979019,55.9000015259,12.720000267
"2002-12-06 16:00:00",8.42000007629,0.293000012636,11.6999998093,1.37000000477,6.96999979019,51.5999984741,13.7299995422
"2002-12-06 17:00:00",8.21000003815,0.284999996424,11.6999998093,1.37999999523,6.96000003815,46.2999992371,12.5900001526
"2002-12-06 18:00:00",8.02999973297,0.347000002861,11.6000003815,1.37000000477,6.96000003815,41.5999984741,12.5200004578
"2002-12-06 19:00:00",7.82999992371,0.381000012159,11.3999996185,1.36000001431,6.96000003815,40.0,12.4899997711
"2002-12-06 20:00:00",7.63000011444,0.33599999547,11.1000003815,1.33000004292,6.96000003815,36.0999984741,12.4600000381
"2002-12-06 21:00:00",7.44000005722,0.307000011206,10.8000001907,1.29999995232,6.96999979019,34.7999992371,12.4399995804
"2002-12-06 22:00:00",7.23999977112,0.28900000453,10.6000003815,1.26999998093,6.98999977112,31.7000007629,12.4099998474
"2002-12-06 23:00:00",7.03000020981,0.277999997139,10.3999996185,1.25999999046,7.01999998093,28.6000003815,12.3900003433
"2002-12-07 00:00:00",6.84000015259,0.273999989033,10.1999998093,1.25,7.05000019073,25.6000003815,12.3800001144
"2002-12-07 01:00:00",6.65999984741,0.268999993801,10.0,1.22000002861,7.05999994278,22.7999992371,12.3599996567
"2002-12-07 02:00:00",6.46999979019,0.268000006676,9.69999980927,1.19000005722,7.07999992371,20.7999992371,12.3400001526
"2002-12-07 03:00:00",6.26999998093,0.264999985695,9.69999980927,1.19000005722,7.09000015259,18.2999992371,12.3199996948
"2002-12-07 04:00:00",6.07999992371,0.261000007391,9.60000038147,1.19000005722,7.09999990463,16.6000003815,12.3100004196
"2002-12-07 05:00:00",5.88999986649,0.261000007391,9.5,1.17999994755,7.11000013351,15.8999996185,12.3000001907
"2002-12-07 06:00:00",5.71999979019,0.263999998569,9.30000019073,1.16999995708,7.11999988556,15.0,12.279999733
"2002-12-07 07:00:00",5.55000019073,0.264999985695,9.19999980927,1.15999996662,7.13000011444,13.6000003815,12.2700004578
"2002-12-07 08:00:00",5.44999980927,0.266000002623,9.10000038147,1.14999997616,7.15999984741,12.8000001907,12.2600002289
"2002-12-07 09:00:00",5.46999979019,0.266999989748,9.30000019073,1.16999995708,7.17000007629,11.8000001907,12.3999996185
"2002-12-07 10:00:00",5.76000022888,0.266999989748,9.5,1.17999994755,7.19999980927,11.5,12.8900003433
"2002-12-07 11:00:00",6.26000022888,0.266999989748,9.80000019073,1.21000003815,7.21999979019,11.0,12.720000267
"2002-12-07 12:00:00",6.94000005722,0.268000006676,10.5,1.26999998093,7.25,10.6999998093,13.8299999237
"2002-12-07 13:00:00",7.40999984741,0.270999997854,10.8000001907,1.29999995232,7.26000022888,10.3000001907,13.3100004196
"2002-12-07 14:00:00",7.80000019073,0.277999997139,11.3999996185,1.35000002384,7.26999998093,10.3999996185,12.8100004196
"2002-12-07 15:00:00",8.18999958038,0.324000000954,11.3999996185,1.34000003338,7.25,10.6999998093,12.6599998474
"2002-12-07 16:00:00",8.44999980927,0.425999999046,11.8000001907,1.37999999523,7.17999982834,9.30000019073,13.0500001907
"2002-12-07 17:00:00",8.51000022888,0.490999996662,12.0,1.39999997616,7.15999984741,8.80000019073,12.5699996948
"2002-12-07 18:00:00",8.39000034332,0.442999988794,11.6000003815,1.36000001431,7.11000013351,8.80000019073,12.5200004578
"2002-12-07 19:00:00",8.19999980927,0.393000006676,11.1000003815,1.30999994278,7.05999994278,9.0,12.4799995422
"2002-12-07 20:00:00",8.0,0.358000010252,10.6999998093,1.25999999046,7.03999996185,9.30000019073,12.4600000381
"2002-12-07 21:00:00",7.75,0.33599999547,10.3999996185,1.24000000954,7.01999998093,9.10000038147,12.4300003052
"2002-12-07 22:00:00",7.5,0.32800000906,10.1999998093,1.22000002861,7.01999998093,9.19999980927,12.4099998474
"2002-12-07 23:00:00",7.30000019073,0.310000002384,10.0,1.20000004768,7.05000019073,8.80000019073,12.3900003433
"2002-12-08 00:00:00",7.11000013351,0.298999994993,9.80000019073,1.17999994755,7.07000017166,8.39999961853,12.3800001144
"2002-12-08 01:00:00",6.92000007629,0.294999986887,9.60000038147,1.16999995708,7.07999992371,8.60000038147,12.3599996567
"2002-12-08 02:00:00",6.71000003815,0.291999995708,9.39999961853,1.14999997616,7.07999992371,9.30000019073,12.3400001526
"2002-12-08 03:00:00",6.51000022888,0.28900000453,9.30000019073,1.13999998569,7.07999992371,9.0,12.3199996948
"2002-12-08 04:00:00",6.32999992371,0.286000013351,9.10000038147,1.12999999523,7.09999990463,8.39999961853,12.3100004196
"2002-12-08 05:00:00",6.13000011444,0.284000009298,9.0,1.12000000477,7.11000013351,9.10000038147,12.3000001907
"2002-12-08 06:00:00",5.98000001907,0.280999988317,8.89999961853,1.11000001431,7.11999988556,8.39999961853,12.279999733
"2002-12-08 07:00:00",5.82000017166,0.280000001192,8.80000019073,1.10000002384,7.13999986649,7.90000009537,12.2600002289
"2002-12-08 08:00:00",5.69000005722,0.277999997139,8.80000019073,1.10000002384,7.15000009537,7.69999980927,12.2600002289
"2002-12-08 09:00:00",5.67000007629,0.277000010014,8.80000019073,1.11000001431,7.15999984741,7.19999980927,12.470000267
"2002-12-08 10:00:00",5.92999982834,0.275999993086,9.0,1.12999999523,7.19000005722,6.90000009537,13.0500001907
"2002-12-08 11:00:00",6.53999996185,0.277000010014,9.5,1.16999995708,7.21999979019,6.90000009537,13.1300001144
"2002-12-08 12:00:00",7.32000017166,0.277999997139,10.1999998093,1.22000002861,7.26000022888,6.69999980927,13.7600002289
"2002-12-08 13:00:00",7.82999992371,0.280000001192,10.6000003815,1.25999999046,7.26000022888,6.90000009537,13.6400003433
"2002-12-08 14:00:00",8.25,0.284999996424,10.8000001907,1.26999998093,7.26000022888,7.09999990463,13.0200004578
"2002-12-08 15:00:00",8.56999969482,0.291999995708,11.0,1.28999996185,7.26000022888,6.59999990463,12.8599996567
"2002-12-08 16:00:00",8.88000011444,0.32800000906,11.3000001907,1.29999995232,7.23999977112,7.09999990463,12.6700000763
"2002-12-08 17:00:00",8.97999954224,0.405999988317,11.3000001907,1.30999994278,7.21000003815,6.5,12.5900001526
"2002-12-08 18:00:00",8.90999984741,0.439999997616,11.1000003815,1.27999997139,7.17999982834,6.0,12.5399999619
"2002-12-08 19:00:00",8.84000015259,0.432000011206,10.8000001907,1.25999999046,7.13999986649,5.59999990463,12.5200004578
"2002-12-08 20:00:00",8.75,0.412999987602,10.6999998093,1.24000000954,7.13000011444,5.59999990463,12.4899997711
"2002-12-08 21:00:00",8.63000011444,0.389999985695,10.6000003815,1.23000001907,7.11999988556,5.80000019073,12.4799995422
"2002-12-08 22:00:00",8.48999977112,0.368000000715,10.3999996185,1.22000002861,7.11999988556,5.69999980927,12.4600000381
"2002-12-08 23:00:00",8.40999984741,0.34999999404,10.3000001907,1.21000003815,7.11999988556,6.09999990463,12.4399995804
"2002-12-09 00:00:00",8.42000007629,0.335000008345,10.3000001907,1.21000003815,7.13999986649,7.19999980927,12.4399995804
"2002-12-09 01:00:00",8.38000011444,0.324999988079,10.3000001907,1.20000004768,7.13999986649,6.59999990463,12.4399995804
"2002-12-09 02:00:00",8.32999992371,0.319000005722,10.1999998093,1.20000004768,7.15000009537,7.59999990463,12.4300003052
"2002-12-09 03:00:00",8.26000022888,0.319000005722,10.1000003815,1.19000005722,7.15000009537,7.5,12.4200000763
"2002-12-09 04:00:00",8.19999980927,0.319999992847,10.1000003815,1.19000005722,7.17000007629,7.30000019073,12.3999996185
"2002-12-09 05:00:00",8.06999969482,0.319000005722,10.0,1.17999994755,7.17000007629,7.0,12.3900003433
"2002-12-09 06:00:00",7.92000007629,0.319999992847,9.80000019073,1.15999996662,7.15999984741,7.5,12.3699998856
"2002-12-09 07:00:00",7.73000001907,0.317999988794,9.60000038147,1.14999997616,7.15999984741,7.40000009537,12.3500003815
"2002-12-09 08:00:00",7.57000017166,0.312999993563,9.5,1.13999998569,7.17000007629,6.69999980927,12.3400001526
"2002-12-09 09:00:00",7.53999996185,0.308999985456,9.5,1.13999998569,7.19000005722,6.90000009537,12.529999733
"2002-12-09 10:00:00",7.55000019073,0.305000007153,9.60000038147,1.14999997616,7.21000003815,6.69999980927,13.0600004196